2022-098G (53450 NORAD) Tracking and Keplerian Element Data

This shows tracking and keplerian element data for the satellite.

Feedback or suggestion? Click here.




ElementValue
Catalog53450
Name2022-098G
Epoch Orbit1550
Epoch Day325.07056774
Epoch Year2022
RAAN59.6403
Inclination97.5332
Eccentricity0.0005687
Argument of Perigee296.914
Mean Anonmoly187.6342
Mean Motion15.09699345
Decay Rate4.648E-05
L11 53450U 22098G 22325.07056774 .00004648 00000+0 29224-3 0 9991
L22 53450 97.5332 59.6403 0005687 296.9140 187.6342 15.09699345 15505



Live tracking and technical data element details for 2022-098G (NORAD 53450). 2022-098G can be tracked NOW for your location showing map with azimuth and elevation plus other details from your city location.







IsCatalogInMostPopularTable: catalog: 53450, numindb: 5
Update: records affected: 1



GetName: 53450 2022-098G

Hit Count: updated at: Thu, 08 Dec 2022 19:51:06 GMT